When you browse on this site, cookies collect data to enhance your experience and personalize the content and advertising you see.
Visit our Privacy Policy to learn more. By continuing to use the site, you agree to this use of cookies and data.
  • In Hungary
  • List of Countries
  • For 7 days
  • Water Temperature
  • Weather Map
  • News
  • Weather Widgets
  • user-avatar
    Login

    Hourly Weather Nikitkino

    Today, 24 January, Friday

    Time Temperature Precipitation Wind Pressure Humidity
    00:00 -6°C° 0 mm 3 mps 736 mmHg 78%
    01:00 -5°C° 0 mm 3 mps 735 mmHg 81%
    02:00 -5°C° 0 mm 3 mps 735 mmHg 85%
    03:00 -5°C° 0.1 mm 4 mps 734 mmHg 87%
    04:00 -5°C° 0.1 mm 4 mps 733 mmHg 89%
    05:00 -5°C° 0.1 mm 5 mps 732 mmHg 91%
    06:00 -5°C° 0.2 mm 5 mps 731 mmHg 92%
    07:00 -5°C° 0.2 mm 5 mps 731 mmHg 92%
    08:00 -4°C° 0.2 mm 5 mps 730 mmHg 93%
    09:00 -2°C° 0.1 mm 5 mps 730 mmHg 93%
    10:00 -1°C° 0.1 mm 5 mps 729 mmHg 94%
    11:00 0°C° 0.1 mm 5 mps 729 mmHg 94%
    12:00 0°C° 0 mm 5 mps 728 mmHg 93%
    13:00 0°C° 0 mm 5 mps 728 mmHg 92%
    14:00 0°C° 0 mm 5 mps 727 mmHg 91%
    15:00 0°C° 0.2 mm 5 mps 727 mmHg 92%
    16:00 0°C° 0.2 mm 5 mps 727 mmHg 94%
    17:00 0°C° 0.2 mm 5 mps 727 mmHg 96%
    18:00 0°C° 0 mm 5 mps 727 mmHg 94%
    19:00 0°C° 0 mm 4 mps 727 mmHg 92%
    20:00 +1°C° 0 mm 3 mps 727 mmHg 90%
    21:00 0°C° 0.3 mm 4 mps 727 mmHg 92%
    22:00 -1°C° 0.3 mm 4 mps 727 mmHg 94%
    23:00 -1°C° 0.3 mm 4 mps 727 mmHg 96%

    Tomorrow, 25 January, Saturday

    Time Temperature Precipitation Wind Pressure Humidity
    00:00 -1°C° 0.2 mm 4 mps 727 mmHg 94%
    01:00 -1°C° 0.2 mm 4 mps 727 mmHg 91%
    02:00 -1°C° 0.2 mm 4 mps 727 mmHg 89%
    03:00 -1°C° 0 mm 4 mps 726 mmHg 89%
    04:00 -1°C° 0 mm 4 mps 726 mmHg 89%
    05:00 -1°C° 0 mm 4 mps 726 mmHg 89%
    06:00 -1°C° 0 mm 4 mps 726 mmHg 87%
    07:00 -1°C° 0 mm 4 mps 725 mmHg 85%
    08:00 -1°C° 0 mm 5 mps 725 mmHg 84%
    09:00 -1°C° 0.1 mm 5 mps 725 mmHg 83%
    10:00 -2°C° 0.1 mm 6 mps 724 mmHg 82%
    11:00 -2°C° 0.1 mm 7 mps 724 mmHg 81%
    12:00 -2°C° 0.2 mm 7 mps 724 mmHg 76%
    13:00 -2°C° 0.2 mm 7 mps 724 mmHg 71%
    14:00 -3°C° 0.2 mm 7 mps 725 mmHg 67%
    15:00 -3°C° 0 mm 6 mps 725 mmHg 69%
    16:00 -4°C° 0 mm 6 mps 726 mmHg 70%
    17:00 -5°C° 0 mm 6 mps 726 mmHg 72%
    18:00 -5°C° 0 mm 6 mps 727 mmHg 73%
    19:00 -5°C° 0 mm 6 mps 727 mmHg 73%
    20:00 -5°C° 0 mm 6 mps 727 mmHg 74%
    21:00 -5°C° 0 mm 6 mps 728 mmHg 75%
    22:00 -5°C° 0 mm 6 mps 729 mmHg 76%
    23:00 -5°C° 0 mm 6 mps 730 mmHg 77%

    Day after tomorrow, 26 January, Sunday

    Time Temperature Precipitation Wind Pressure Humidity
    00:00 -5°C° 0 mm 6 mps 731 mmHg 77%
    01:00 -5°C° 0 mm 6 mps 731 mmHg 76%
    02:00 -5°C° 0 mm 5 mps 732 mmHg 76%
    03:00 -6°C° 0 mm 5 mps 733 mmHg 78%
    04:00 -5°C° 0 mm 4 mps 733 mmHg 79%
    05:00 -5°C° 0 mm 4 mps 734 mmHg 81%
    06:00 -5°C° 0 mm 4 mps 734 mmHg 82%
    07:00 -5°C° 0 mm 4 mps 735 mmHg 83%
    08:00 -5°C° 0 mm 3 mps 735 mmHg 83%
    09:00 -5°C° 0 mm 4 mps 735 mmHg 80%
    10:00 -4°C° 0 mm 4 mps 736 mmHg 77%
    11:00 -4°C° 0 mm 4 mps 736 mmHg 74%
    12:00 -3°C° 0 mm 4 mps 735 mmHg 75%
    13:00 -3°C° 0 mm 4 mps 735 mmHg 77%
    14:00 -4°C° 0 mm 5 mps 734 mmHg 78%
    15:00 -2°C° 0.2 mm 5 mps 734 mmHg 84%
    16:00 -2°C° 0.2 mm 5 mps 734 mmHg 90%
    17:00 -1°C° 0.2 mm 5 mps 733 mmHg 96%
    18:00 0°C° 0.1 mm 5 mps 733 mmHg 95%
    19:00 0°C° 0.1 mm 5 mps 733 mmHg 94%
    20:00 +1°C° 0.1 mm 5 mps 733 mmHg 93%
    21:00 +1°C° 0 mm 5 mps 733 mmHg 92%
    22:00 +1°C° 0 mm 5 mps 733 mmHg 91%
    23:00 +1°C° 0 mm 5 mps 733 mmHg 90%

    27 January, Monday

    Time Temperature Precipitation Wind Pressure Humidity
    00:00 +1°C° 0 mm 5 mps 734 mmHg 90%
    01:00 +1°C° 0 mm 5 mps 734 mmHg 91%
    02:00 +1°C° 0 mm 5 mps 734 mmHg 92%
    03:00 +1°C° 0.1 mm 4 mps 734 mmHg 92%
    04:00 +1°C° 0.1 mm 4 mps 734 mmHg 93%
    05:00 0°C° 0.1 mm 4 mps 734 mmHg 94%
    06:00 0°C° 0.1 mm 4 mps 735 mmHg 95%
    07:00 0°C° 0.1 mm 4 mps 735 mmHg 96%
    08:00 +1°C° 0.1 mm 3 mps 735 mmHg 96%
    09:00 +1°C° 0 mm 3 mps 735 mmHg 97%
    10:00 +1°C° 0 mm 3 mps 736 mmHg 97%
    11:00 +1°C° 0 mm 3 mps 736 mmHg 97%
    12:00 +1°C° 0.1 mm 3 mps 736 mmHg 97%
    13:00 +1°C° 0.1 mm 3 mps 736 mmHg 97%
    14:00 +1°C° 0.1 mm 3 mps 736 mmHg 97%
    15:00 +2°C° 0.1 mm 2 mps 736 mmHg 97%
    16:00 +1°C° 0.1 mm 2 mps 736 mmHg 97%
    17:00 +1°C° 0.1 mm 2 mps 736 mmHg 97%
    18:00 +1°C° 0.2 mm 2 mps 736 mmHg 97%
    19:00 +1°C° 0.2 mm 2 mps 736 mmHg 97%
    20:00 +1°C° 0.2 mm 2 mps 736 mmHg 97%
    21:00 +1°C° 0.1 mm 2 mps 736 mmHg 97%
    22:00 +1°C° 0.1 mm 2 mps 736 mmHg 97%
    23:00 +1°C° 0.1 mm 2 mps 736 mmHg 98%

    28 January, Tuesday

    Time Temperature Precipitation Wind Pressure Humidity
    00:00 +1°C° 0 mm 2 mps 736 mmHg 98%
    01:00 +1°C° 0 mm 2 mps 736 mmHg 98%
    02:00 +1°C° 0 mm 2 mps 736 mmHg 98%
    03:00 +1°C° 0.1 mm 2 mps 736 mmHg 98%
    04:00 -1°C° 0.1 mm 2 mps 736 mmHg 98%
    05:00 -1°C° 0.1 mm 2 mps 736 mmHg 98%
    06:00 +1°C° 0.1 mm 1 mps 736 mmHg 98%
    07:00 +1°C° 0.1 mm 1 mps 736 mmHg 98%
    08:00 +1°C° 0.1 mm 1 mps 736 mmHg 98%
    09:00 +1°C° 0.1 mm 1 mps 736 mmHg 98%
    10:00 +1°C° 0.1 mm 1 mps 736 mmHg 98%
    11:00 +1°C° 0.1 mm 1 mps 736 mmHg 98%
    12:00 +2°C° 0 mm 1 mps 736 mmHg 97%
    13:00 +2°C° 0 mm 1 mps 736 mmHg 97%
    14:00 +2°C° 0 mm 1 mps 736 mmHg 96%
    15:00 -1°C° 0 mm 2 mps 736 mmHg 97%
    16:00 -1°C° 0 mm 2 mps 736 mmHg 97%
    17:00 -1°C° 0 mm 2 mps 736 mmHg 97%
    18:00 -1°C° 0 mm 2 mps 736 mmHg 97%
    19:00 -1°C° 0 mm 2 mps 736 mmHg 97%
    20:00 -1°C° 0 mm 2 mps 736 mmHg 97%
    21:00 -1°C° 0 mm 2 mps 736 mmHg 97%
    22:00 -1°C° 0 mm 2 mps 736 mmHg 97%
    23:00 -1°C° 0 mm 3 mps 736 mmHg 97%

    29 January, Wednesday

    Time Temperature Precipitation Wind Pressure Humidity
    00:00 -1°C° 0.1 mm 3 mps 736 mmHg 97%
    01:00 -1°C° 0.1 mm 3 mps 736 mmHg 97%
    02:00 -1°C° 0.1 mm 3 mps 736 mmHg 97%
    03:00 -1°C° 0 mm 3 mps 736 mmHg 97%
    04:00 -1°C° 0 mm 3 mps 735 mmHg 97%
    05:00 -2°C° 0 mm 4 mps 735 mmHg 96%
    06:00 -1°C° 0 mm 3 mps 735 mmHg 96%
    07:00 -1°C° 0 mm 3 mps 735 mmHg 96%
    08:00 -1°C° 0 mm 3 mps 735 mmHg 96%
    09:00 0°C° 0 mm 3 mps 735 mmHg 96%
    10:00 -1°C° 0 mm 4 mps 734 mmHg 96%
    11:00 -1°C° 0 mm 4 mps 734 mmHg 95%
    12:00 -1°C° 0 mm 4 mps 734 mmHg 96%
    13:00 -1°C° 0 mm 4 mps 734 mmHg 96%
    14:00 -1°C° 0 mm 4 mps 733 mmHg 96%
    15:00 -2°C° 0.1 mm 4 mps 733 mmHg 96%
    16:00 -2°C° 0.1 mm 4 mps 733 mmHg 96%
    17:00 -2°C° 0.1 mm 4 mps 733 mmHg 96%
    18:00 -2°C° 0.1 mm 4 mps 733 mmHg 96%
    19:00 -2°C° 0.1 mm 4 mps 732 mmHg 96%
    20:00 -2°C° 0.1 mm 4 mps 732 mmHg 96%
    21:00 -2°C° 0.2 mm 4 mps 732 mmHg 96%
    22:00 -2°C° 0.2 mm 4 mps 732 mmHg 95%
    23:00 -2°C° 0.2 mm 4 mps 731 mmHg 95%
    Show more